Date,Installs,Update checks
2017-10-19,1,0
2017-10-20,6,1
2017-10-21,12,2
2017-10-22,14,1
2017-10-23,15,8
2017-10-24,8,11
2017-10-25,9,8
2017-10-26,8,5
2017-10-27,15,17
2017-10-28,23,23
2017-10-29,20,21
2017-10-30,11,22
2017-10-31,4,24
2017-11-01,11,24
2017-11-02,3,27
2017-11-03,4,25
2017-11-04,6,30
2017-11-05,4,22
2017-11-06,2,18
2017-11-07,0,27
2017-11-08,4,28
2017-11-09,4,24
2017-11-10,7,28
2017-11-11,5,22
2017-11-12,6,27
2017-11-13,5,25
2017-11-14,0,24
2017-11-15,2,19
2017-11-16,4,21
2017-11-17,5,26
2017-11-18,6,25
2017-11-19,6,19
2017-11-20,4,26
2017-11-21,3,32
2017-11-22,4,29
2017-11-23,5,27
2017-11-24,4,24
2017-11-25,6,27
2017-11-26,7,21
2017-11-27,6,27
2017-11-28,1,30
2017-11-29,5,25
2017-11-30,6,28
2017-12-01,3,27
2017-12-02,3,26
2017-12-03,8,24
2017-12-04,1,29
2017-12-05,1,33
2017-12-06,3,30
2017-12-07,2,27
2017-12-08,3,30
2017-12-09,5,21
2017-12-10,10,29
2017-12-11,4,26
2017-12-12,4,24
2017-12-13,2,34
2017-12-14,1,23
2017-12-15,4,24
2017-12-16,6,24
2017-12-17,6,25
2017-12-18,0,30
2017-12-19,4,27
2017-12-20,3,25
2017-12-21,2,27
2017-12-22,5,30
2017-12-23,3,28
2017-12-24,1,24
2017-12-25,3,22
2017-12-26,8,21
2017-12-27,4,26
2017-12-28,7,29
2017-12-29,3,33
2017-12-30,2,28
2017-12-31,0,26
2018-01-01,5,26
2018-01-02,2,31
2018-01-03,5,34
2018-01-04,1,33
2018-01-05,5,31
2018-01-06,3,27
2018-01-07,1,31
2018-01-08,1,35
2018-01-09,5,27
2018-01-10,1,24
2018-01-11,3,28
2018-01-12,3,23
2018-01-13,3,29
2018-01-14,4,26
2018-01-15,4,28
2018-01-16,2,29
2018-01-17,3,25
2018-01-18,2,27
2018-01-19,2,24
2018-01-20,4,24
2018-01-21,6,31
2018-01-22,1,27
2018-01-23,2,30
2018-01-24,3,30
2018-01-25,3,30
2018-01-26,7,28
2018-01-27,12,22
2018-01-28,8,25
2018-01-29,6,32
2018-01-30,5,30
2018-01-31,2,34
2018-02-01,5,37
2018-02-02,8,34
2018-02-03,5,36
2018-02-04,4,35
2018-02-05,2,33
2018-02-06,1,24
2018-02-07,2,27
2018-02-08,5,36
2018-02-09,4,33
2018-02-10,7,33
2018-02-11,1,25
2018-02-12,9,40
2018-02-13,6,28
2018-02-14,7,37
2018-02-15,4,38
2018-02-16,11,31
2018-02-17,6,32
2018-02-18,3,30
2018-02-19,5,35
2018-02-20,6,39
2018-02-21,3,36
2018-02-22,3,32
2018-02-23,4,37
2018-02-24,5,29
2018-02-25,3,19
2018-02-26,6,29
2018-02-27,4,26
2018-02-28,6,18
2018-03-01,6,28
2018-03-02,4,29
2018-03-03,2,26
2018-03-04,3,24
2018-03-05,1,26
2018-03-06,4,23
2018-03-07,3,28
2018-03-08,1,19
2018-03-09,4,24
2018-03-10,5,32
2018-03-11,4,27
2018-03-12,4,24
2018-03-13,3,22
2018-03-14,3,33
2018-03-15,2,22
2018-03-16,2,21
2018-03-17,7,22
2018-03-18,4,25
2018-03-19,3,16
2018-03-20,3,28
2018-03-21,1,20
2018-03-22,2,25
2018-03-23,4,25
2018-03-24,6,31
2018-03-25,5,25
2018-03-26,4,28
2018-03-27,3,30
2018-03-28,4,25
2018-03-29,1,25
2018-03-30,7,27
2018-03-31,6,25
2018-04-01,8,24
2018-04-02,7,25
2018-04-03,4,31
2018-04-04,4,28
2018-04-05,4,24
2018-04-06,6,24
2018-04-07,2,29
2018-04-08,1,22
2018-04-09,6,21
2018-04-10,0,31
2018-04-11,2,26
2018-04-12,4,25
2018-04-13,4,25
2018-04-14,3,22
2018-04-15,3,15
2018-04-16,0,26
2018-04-17,2,24
2018-04-18,2,21
2018-04-19,4,22
2018-04-20,4,28
2018-04-21,5,30
2018-04-22,5,23
2018-04-23,1,25
2018-04-24,2,27
2018-04-25,5,22
2018-04-26,1,23
2018-04-27,3,31
2018-04-28,3,31
2018-04-29,3,22
2018-04-30,4,32
2018-05-01,6,25
2018-05-02,0,25
2018-05-03,7,33
2018-05-04,3,23
2018-05-05,12,31
2018-05-06,7,23
2018-05-07,5,30
2018-05-08,3,32
2018-05-09,7,33
2018-05-10,2,21
2018-05-11,2,35
2018-05-12,1,29
2018-05-13,9,26
2018-05-14,4,31
2018-05-15,1,28
2018-05-16,6,38
2018-05-17,1,29
2018-05-18,2,39
2018-05-19,3,18
2018-05-20,1,31
2018-05-21,5,39
2018-05-22,2,26
2018-05-23,3,31
2018-05-24,3,17
2018-05-25,3,28
2018-05-26,3,27
2018-05-27,6,21
2018-05-28,5,30
2018-05-29,4,33
2018-05-30,2,29
2018-05-31,3,35
2018-06-01,4,35
2018-06-02,2,21
2018-06-03,2,33
2018-06-04,4,27
2018-06-05,0,26
2018-06-06,1,29
2018-06-07,1,27
2018-06-08,0,29
2018-06-09,2,23
2018-06-10,3,20
2018-06-11,9,28
2018-06-12,5,17
2018-06-13,3,27
2018-06-14,4,25
2018-06-15,4,32
2018-06-16,2,20
2018-06-17,1,33
2018-06-18,0,23
2018-06-19,2,22
2018-06-20,1,23
2018-06-21,2,19
2018-06-22,6,22
2018-06-23,5,23
2018-06-24,5,21
2018-06-25,6,21
2018-06-26,6,19
2018-06-27,2,23
2018-06-28,3,18
2018-06-29,3,23
2018-06-30,4,20
2018-07-01,5,16
2018-07-02,9,22
2018-07-03,4,19
2018-07-04,5,25
2018-07-05,5,18
2018-07-06,8,21
2018-07-07,10,28
2018-07-08,4,14
2018-07-09,5,19
2018-07-10,3,21
2018-07-11,2,12
2018-07-12,1,19
2018-07-13,1,14
2018-07-14,1,22
2018-07-15,5,18
2018-07-16,3,19
2018-07-17,1,21
2018-07-18,2,23
2018-07-19,4,18
2018-07-20,1,16
2018-07-21,3,12
2018-07-22,3,14
2018-07-23,3,18
2018-07-24,1,17
2018-07-25,3,17
2018-07-26,5,17
2018-07-27,3,13
2018-07-28,5,17
2018-07-29,6,17
2018-07-30,2,14
2018-07-31,0,20
2018-08-01,1,16
2018-08-02,0,11
2018-08-03,1,15
2018-08-04,4,18
2018-08-05,3,19
2018-08-06,5,17
2018-08-07,2,17
2018-08-08,0,20
2018-08-09,0,16
2018-08-10,1,20
2018-08-11,1,14
2018-08-12,2,17
2018-08-13,5,15
2018-08-14,1,18
2018-08-15,1,18
2018-08-16,2,25
2018-08-17,4,23
2018-08-18,4,25
2018-08-19,1,28
2018-08-20,3,25
2018-08-21,6,24
2018-08-22,3,23
2018-08-23,2,27
2018-08-24,1,23
2018-08-25,4,24
2018-08-26,3,20
2018-08-27,3,22
2018-08-28,3,30
2018-08-29,4,28
2018-08-30,2,19
2018-08-31,3,20
2018-09-01,2,20
2018-09-02,3,10
2018-09-03,2,24
2018-09-04,1,20
2018-09-05,0,27
2018-09-06,2,20
2018-09-07,1,16
2018-09-08,6,16
2018-09-09,2,21
2018-09-10,3,21
2018-09-11,5,17
2018-09-12,2,25
2018-09-13,4,18
2018-09-14,2,20
2018-09-15,4,22
2018-09-16,2,24
2018-09-17,2,20
2018-09-18,5,26
2018-09-19,3,18
2018-09-20,3,15
2018-09-21,5,20
2018-09-22,4,16
2018-09-23,4,18
2018-09-24,4,16
2018-09-25,2,23
2018-09-26,1,19
2018-09-27,5,16
2018-09-28,5,23
2018-09-29,5,24
2018-09-30,1,19
2018-10-01,2,27
2018-10-02,2,18
2018-10-03,4,19
2018-10-04,1,22
2018-10-05,3,20
2018-10-06,5,23
2018-10-07,2,21
2018-10-08,2,23
2018-10-09,5,20
2018-10-10,5,22
2018-10-11,5,22
2018-10-12,3,22
2018-10-13,5,25
2018-10-14,5,22
2018-10-15,6,20
2018-10-16,4,23
2018-10-17,2,26
2018-10-18,4,26
2018-10-19,1,19
2018-10-20,3,20
2018-10-21,4,15
2018-10-22,4,24
2018-10-23,2,21
2018-10-24,3,23
2018-10-25,2,19
2018-10-26,3,18
2018-10-27,6,23
2018-10-28,3,26
2018-10-29,0,23
2018-10-30,1,23
2018-10-31,2,14
2018-11-01,1,20
2018-11-02,3,22
2018-11-03,2,18
2018-11-04,3,18
2018-11-05,1,19
2018-11-06,5,21
2018-11-07,4,17
2018-11-08,7,22
2018-11-09,4,21
2018-11-10,2,14
2018-11-11,2,16
2018-11-12,5,25
2018-11-13,4,19
2018-11-14,1,19
2018-11-15,2,20
2018-11-16,2,18
2018-11-17,5,14
2018-11-18,0,22
2018-11-19,1,17
2018-11-20,1,21
2018-11-21,1,16
2018-11-22,1,16
2018-11-23,1,26
2018-11-24,1,11
2018-11-25,1,19
2018-11-26,0,15
2018-11-27,2,17
2018-11-28,0,15
2018-11-29,1,16
2018-11-30,0,13
2018-12-01,1,14
2018-12-02,2,17
2018-12-03,1,16
2018-12-04,1,12
2018-12-05,1,21
2018-12-06,2,14
2018-12-07,2,23
2018-12-08,3,13
2018-12-09,1,18
2018-12-10,1,15
2018-12-11,3,14
2018-12-12,3,16
2018-12-13,4,18
2018-12-14,2,15
2018-12-15,4,19
2018-12-16,4,18
2018-12-17,4,19
2018-12-18,3,18
2018-12-19,1,13
2018-12-20,3,22
2018-12-21,0,17
2018-12-22,1,14
2018-12-23,2,10
2018-12-24,1,19
2018-12-25,2,8
2018-12-26,4,14
2018-12-27,5,16
2018-12-28,0,14
2018-12-29,1,13
2018-12-30,3,12
2018-12-31,2,10
2019-01-01,3,14
2019-01-02,2,14
2019-01-03,1,15
2019-01-04,2,15
2019-01-05,1,14
2019-01-06,1,11
2019-01-07,1,11
2019-01-08,2,14
2019-01-09,2,18
2019-01-10,2,14
2019-01-11,2,18
2019-01-12,3,15
2019-01-13,0,17
2019-01-14,1,14
2019-01-15,2,13
2019-01-16,1,18
2019-01-17,1,14
2019-01-18,2,11
2019-01-19,5,20
2019-01-20,2,14
2019-01-21,3,19
2019-01-22,1,10
2019-01-23,1,17
2019-01-24,1,11
2019-01-25,0,14
2019-01-26,1,13
2019-01-27,2,12
2019-01-28,4,17
2019-01-29,1,15
2019-01-30,2,16
2019-01-31,4,18
2019-02-01,3,21
2019-02-02,6,11
2019-02-03,3,20
2019-02-04,1,20
2019-02-05,0,15
2019-02-06,1,19
2019-02-07,1,16
2019-02-08,5,18
2019-02-09,1,15
2019-02-10,4,16
2019-02-11,0,13
2019-02-12,1,11
2019-02-13,3,12
2019-02-14,3,12
2019-02-15,2,19
2019-02-16,1,15
2019-02-17,3,15
2019-02-18,3,12
2019-02-19,3,14
2019-02-20,2,15
2019-02-21,2,10
2019-02-22,2,16
2019-02-23,1,11
2019-02-24,3,11
2019-02-25,2,20
2019-02-26,1,15
2019-02-27,2,14
2019-02-28,1,14
2019-03-01,2,15
2019-03-02,1,13
2019-03-03,1,14
2019-03-04,4,15
2019-03-05,2,10
2019-03-06,1,11
2019-03-07,1,15
2019-03-08,2,21
2019-03-09,1,18
2019-03-10,3,16
2019-03-11,1,13
2019-03-12,2,13
2019-03-13,1,16
2019-03-14,1,17
2019-03-15,1,16
2019-03-16,2,20
2019-03-17,2,10
2019-03-18,1,17
2019-03-19,0,16
2019-03-20,1,8
2019-03-21,1,18
2019-03-22,1,14
2019-03-23,4,19
2019-03-24,0,12
2019-03-25,1,12
2019-03-26,1,15
2019-03-27,1,14
2019-03-28,1,14
2019-03-29,0,16
2019-03-30,0,8
2019-03-31,0,12
2019-04-01,0,11
2019-04-02,0,9
2019-04-03,0,14
2019-04-04,0,10
2019-04-05,0,14
2019-04-06,0,7
2019-04-07,1,11
2019-04-08,0,12
2019-04-09,1,13
2019-04-10,0,9
2019-04-11,0,12
2019-04-12,1,15
2019-04-13,1,8
2019-04-14,2,13
2019-04-15,1,10
2019-04-16,1,8
2019-04-17,2,9
2019-04-18,0,11
2019-04-19,1,10
2019-04-20,1,10
2019-04-21,1,6
2019-04-22,0,10
2019-04-23,0,11
2019-04-24,0,11
2019-04-25,1,6
2019-04-26,3,11
2019-04-27,1,11
2019-04-28,2,12
2019-04-29,0,12
2019-04-30,1,10
2019-05-01,0,12
2019-05-02,0,7
2019-05-03,1,8
2019-05-04,3,10
2019-05-05,2,10
2019-05-06,0,6
2019-05-07,0,10
2019-05-08,0,9
2019-05-09,2,10
2019-05-10,5,8
2019-05-11,2,12
2019-05-12,2,8
2019-05-13,2,14
2019-05-14,3,12
2019-05-15,2,9
2019-05-16,0,10
2019-05-17,1,13
2019-05-18,0,8
2019-05-19,1,11
2019-05-20,0,12
2019-05-21,0,12
2019-05-22,1,12
2019-05-23,0,16
2019-05-24,0,13
2019-05-25,0,14
2019-05-26,2,12
2019-05-27,2,11
2019-05-28,0,7
2019-05-29,0,9
2019-05-30,1,11
2019-05-31,1,13
2019-06-01,2,7
2019-06-02,2,8
2019-06-03,1,12
2019-06-04,1,13
2019-06-05,0,6
2019-06-06,1,7
2019-06-07,0,9
2019-06-08,0,7
2019-06-09,1,11
2019-06-10,0,10
2019-06-11,1,9
2019-06-12,0,9
2019-06-13,0,13
2019-06-14,1,7
2019-06-15,0,4
2019-06-16,2,7
2019-06-17,0,4
2019-06-18,2,4
2019-06-19,1,6
2019-06-20,1,6
2019-06-21,1,5
2019-06-22,0,6
2019-06-23,0,5
2019-06-24,0,7
2019-06-25,0,4
2019-06-26,0,5
2019-06-27,1,6
2019-06-28,2,6
2019-06-29,2,3
2019-06-30,2,5
2019-07-01,0,4
2019-07-02,1,4
2019-07-03,1,6
2019-07-04,0,4
2019-07-05,0,7
2019-07-06,0,4
2019-07-07,0,7
2019-07-08,0,2
2019-07-09,0,2
2019-07-10,1,2
2019-07-11,0,1
2019-07-12,1,3
2019-07-13,1,4
2019-07-14,0,3
2019-07-15,0,3
2019-07-16,0,4
2019-07-17,1,6
2019-07-18,0,2
2019-07-19,2,4
2019-07-20,2,0
2019-07-21,1,3
2019-07-22,2,3
2019-07-23,1,3
2019-07-24,3,2
2019-07-25,1,6
2019-07-26,0,2
2019-07-27,0,5
2019-07-28,1,4
2019-07-29,1,5
2019-07-30,2,3
2019-07-31,1,5
2019-08-01,0,4
2019-08-02,1,5
2019-08-03,0,4
2019-08-04,1,3
2019-08-05,0,3
2019-08-06,0,4
2019-08-07,0,1
2019-08-08,2,4
2019-08-09,0,2
2019-08-10,0,4
2019-08-11,1,2
2019-08-12,1,3
2019-08-13,0,3
2019-08-14,0,5
2019-08-15,0,1
2019-08-16,0,3
2019-08-17,2,3
2019-08-18,0,3
2019-08-19,1,4
2019-08-20,0,5
2019-08-21,0,5
2019-08-22,1,6
2019-08-23,0,2
2019-08-24,0,1
2019-08-25,0,2
2019-08-26,1,7
2019-08-27,0,3
2019-08-28,0,1
2019-08-29,0,4
2019-08-30,1,3
2019-08-31,0,3
2019-09-01,0,3
2019-09-02,0,7
2019-09-03,0,3
2019-09-04,0,4
2019-09-05,0,2
2019-09-06,0,1
2019-09-07,0,4
2019-09-08,0,2
2019-09-09,1,2
2019-09-10,0,4
2019-09-11,1,4
2019-09-12,0,4
2019-09-13,0,4
2019-09-14,0,3
2019-09-15,0,3
2019-09-16,0,4
2019-09-17,1,5
2019-09-18,0,9
2019-09-19,0,1
2019-09-20,0,8
2019-09-21,1,5
2019-09-22,1,4
2019-09-23,0,3
2019-09-24,0,3
2019-09-25,0,4
2019-09-26,0,1
2019-09-27,0,2
2019-09-28,0,2
2019-09-29,0,3
2019-09-30,0,7
2019-10-01,1,1
2019-10-02,0,3
2019-10-03,1,2
2019-10-04,0,1
2019-10-05,0,4
2019-10-06,0,5
2019-10-07,0,3
2019-10-08,0,3
2019-10-09,0,3
2019-10-10,0,2
2019-10-11,0,2
2019-10-12,1,2
2019-10-13,0,4
2019-10-14,0,3
2019-10-15,0,2
2019-10-16,0,3
2019-10-17,0,1
2019-10-18,0,4
2019-10-19,1,2
2019-10-20,0,2
2019-10-21,0,5
2019-10-22,0,2
2019-10-23,0,3
2019-10-24,0,6
2019-10-25,0,3
2019-10-26,1,2
2019-10-27,0,7
2019-10-28,0,7
2019-10-29,0,2
2019-10-30,0,3
2019-10-31,0,4
2019-11-01,0,4
2019-11-02,0,4
2019-11-03,0,3
2019-11-04,0,5
2019-11-05,0,8
2019-11-06,0,2
2019-11-07,0,6
2019-11-08,0,2
2019-11-09,0,4
2019-11-10,0,4
2019-11-11,0,1
2019-11-12,0,4
2019-11-13,0,2
2019-11-14,1,2
2019-11-15,0,0
2019-11-16,0,3
2019-11-17,0,1
2019-11-18,0,4
2019-11-19,0,3
2019-11-20,0,7
2019-11-21,1,6
2019-11-22,0,5
2019-11-23,0,3
2019-11-24,0,2
2019-11-25,1,2
2019-11-26,2,4
2019-11-27,0,3
2019-11-28,0,2
2019-11-29,0,2
2019-11-30,0,4
2019-12-01,0,2
2019-12-02,0,3
2019-12-03,0,3
2019-12-04,0,2
2019-12-05,0,2
2019-12-06,0,1
2019-12-07,0,2
2019-12-08,0,4
2019-12-09,0,2
2019-12-10,0,7
2019-12-11,0,5
2019-12-12,0,4
2019-12-13,2,3
2019-12-14,1,3
2019-12-15,0,4
2019-12-16,0,4
2019-12-17,1,5
2019-12-18,1,4
2019-12-19,0,5
2019-12-20,0,4
2019-12-21,0,3
2019-12-22,0,6
2019-12-23,0,3
2019-12-24,0,2
2019-12-25,0,3
2019-12-26,0,4
2019-12-27,0,3
2019-12-28,1,6
2019-12-29,0,5
2019-12-30,0,4
2019-12-31,0,4
2020-01-01,0,3
2020-01-02,1,4
2020-01-03,0,6
2020-01-04,0,1
2020-01-05,0,3
2020-01-06,0,4
2020-01-07,0,5
2020-01-08,0,6
2020-01-09,0,2
2020-01-10,0,4
2020-01-11,0,5
2020-01-12,0,2
2020-01-13,0,9
2020-01-14,0,4
2020-01-15,0,5
2020-01-16,0,3
2020-01-17,0,5
2020-01-18,0,0
2020-01-19,0,6
2020-01-20,0,2
2020-01-21,0,4
2020-01-22,0,3
2020-01-23,0,3
2020-01-24,0,5
2020-01-25,0,5
2020-01-26,0,3
2020-01-27,0,3
2020-01-28,0,5
2020-01-29,0,3
2020-01-30,0,6
2020-01-31,1,3
2020-02-01,0,3
2020-02-02,0,2
2020-02-03,0,4
2020-02-04,0,3
2020-02-05,0,5
2020-02-06,0,2
2020-02-07,0,7
2020-02-08,0,1
2020-02-09,0,3
2020-02-10,0,5
2020-02-11,0,4
2020-02-12,0,4
2020-02-13,0,3
2020-02-14,0,3
2020-02-15,0,3
2020-02-16,0,7
2020-02-17,0,3
2020-02-18,0,4
2020-02-19,0,4
2020-02-20,0,2
2020-02-21,0,5
2020-02-22,0,4
2020-02-23,0,4
2020-02-24,0,3
2020-02-25,0,1
2020-02-26,0,3
2020-02-27,0,5
2020-02-28,0,1
2020-02-29,0,4
2020-03-01,0,4
2020-03-02,0,2
2020-03-03,0,3
2020-03-04,0,5
2020-03-05,0,5
2020-03-06,0,3
2020-03-07,0,4
2020-03-08,0,4
2020-03-09,0,4
2020-03-10,0,3
2020-03-11,0,4
2020-03-12,0,0
2020-03-13,0,3
2020-03-14,0,3
2020-03-15,0,1
2020-03-16,0,4
2020-03-17,0,2
2020-03-18,0,2
2020-03-19,0,0
2020-03-20,1,2
2020-03-21,0,3
2020-03-22,0,4
2020-03-23,0,2
2020-03-24,1,5
2020-03-25,0,5
2020-03-26,0,2
2020-03-27,0,1
2020-03-28,0,2
2020-03-29,0,2
2020-03-30,0,1
2020-03-31,0,0
2020-04-01,0,2
2020-04-02,0,2
2020-04-03,0,2
2020-04-04,0,2
2020-04-05,0,1
2020-04-06,0,1
2020-04-07,0,5
2020-04-08,0,2
2020-04-09,0,2
2020-04-10,0,0
2020-04-11,0,1
2020-04-12,0,1
2020-04-13,0,3
2020-04-14,0,2
2020-04-15,0,2
2020-04-16,0,1
2020-04-17,0,0
2020-04-18,0,2
2020-04-19,0,3
2020-04-20,0,0
2020-04-21,0,2
2020-04-22,0,3
2020-04-23,0,2
2020-04-24,0,1
2020-04-25,0,0
2020-04-26,0,2
2020-04-27,0,2
2020-04-28,0,1
2020-04-29,0,2
2020-04-30,1,0
2020-05-01,0,1
2020-05-02,0,1
2020-05-03,0,3
2020-05-04,0,1
2020-05-05,0,1
2020-05-06,0,3
2020-05-07,0,2
2020-05-08,0,1
2020-05-09,0,0
2020-05-10,0,1
2020-05-11,1,1
2020-05-12,0,1
2020-05-13,0,2
2020-05-14,0,1
2020-05-15,1,2
2020-05-16,1,3
2020-05-17,0,0
2020-05-18,0,2
2020-05-19,0,2
2020-05-20,0,2
2020-05-21,0,3
2020-05-22,0,2
2020-05-23,0,1
2020-05-24,0,1
2020-05-25,0,2
2020-05-26,0,0
2020-05-27,0,1
2020-05-28,0,0
2020-05-29,0,0
2020-05-30,0,2
2020-05-31,0,0
2020-06-01,0,1
2020-06-02,0,1
2020-06-03,0,2
2020-06-04,0,3
2020-06-05,0,0
2020-06-06,0,0
2020-06-07,0,0
2020-06-08,0,2
2020-06-09,0,1
2020-06-10,0,2
2020-06-11,0,2
2020-06-12,0,2
2020-06-13,1,2
2020-06-14,0,3
2020-06-15,0,3
2020-06-16,1,3
2020-06-17,0,3
2020-06-18,0,3
2020-06-19,1,1
2020-06-20,0,1
2020-06-21,2,3
2020-06-22,0,1
2020-06-23,0,0
2020-06-24,0,2
2020-06-25,0,2
2020-06-26,0,0
2020-06-27,0,2
2020-06-28,0,5
2020-06-29,0,2
2020-06-30,0,3
2020-07-01,0,2
2020-07-02,0,2
2020-07-03,0,3
2020-07-04,0,1
2020-07-05,0,1
2020-07-06,0,3
2020-07-07,0,6
2020-07-08,0,2
2020-07-09,0,3
2020-07-10,0,2
2020-07-11,0,3
2020-07-12,0,3
2020-07-13,0,2
2020-07-14,0,1
2020-07-15,0,1
2020-07-16,0,3
2020-07-17,0,2
2020-07-18,0,2
2020-07-19,0,2
2020-07-20,1,2
2020-07-21,0,3
2020-07-22,0,1
2020-07-23,0,2
2020-07-24,0,1
2020-07-25,0,2
2020-07-26,0,4
2020-07-27,0,2
2020-07-28,0,3
2020-07-29,0,1
2020-07-30,0,2
2020-07-31,0,2
2020-08-01,0,0
2020-08-02,2,0
2020-08-03,1,3
2020-08-04,0,2
2020-08-05,0,5
2020-08-06,0,1
2020-08-07,0,3
2020-08-08,0,1
2020-08-09,0,0
2020-08-10,0,1
2020-08-11,0,1
2020-08-12,0,2
2020-08-13,0,1
2020-08-14,0,1
2020-08-15,0,2
2020-08-16,0,1
2020-08-17,0,1
2020-08-18,0,1
2020-08-19,0,1
2020-08-20,0,1
2020-08-21,0,0
2020-08-22,0,1
2020-08-23,0,0
2020-08-24,0,0
2020-08-25,0,0
2020-08-26,0,0
2020-08-27,0,0
2020-08-28,0,0
2020-08-29,0,0
2020-08-30,0,0
2020-08-31,0,1
2020-09-01,0,2
2020-09-02,0,1
2020-09-03,0,0
2020-09-04,0,0
2020-09-05,0,1
2020-09-06,0,0
2020-09-07,0,0
2020-09-08,0,0
2020-09-09,0,0
2020-09-10,0,1
2020-09-11,0,1
2020-09-12,0,1
2020-09-13,0,0
2020-09-14,0,0
2020-09-15,1,0
2020-09-16,0,1
2020-09-17,0,1
2020-09-18,0,0
2020-09-19,0,3
2020-09-20,0,0
2020-09-21,0,1
2020-09-22,0,1
2020-09-23,0,0
2020-09-24,0,0
2020-09-25,0,3
2020-09-26,0,1
2020-09-27,0,1
2020-09-28,0,2
2020-09-29,0,2
2020-09-30,0,1
2020-10-01,0,0
2020-10-02,0,1
2020-10-03,0,2
2020-10-04,0,1
2020-10-05,0,2
2020-10-06,0,0
2020-10-07,0,2
2020-10-08,0,1
2020-10-09,0,0
2020-10-10,0,1
2020-10-11,0,0
2020-10-12,0,0
2020-10-13,1,2
2020-10-14,0,0
2020-10-15,0,1
2020-10-16,0,1
2020-10-17,0,1
2020-10-18,0,1
2020-10-19,0,2
2020-10-20,0,0
2020-10-21,0,1
2020-10-22,0,1
2020-10-23,0,1
2020-10-24,0,2
2020-10-25,0,1
2020-10-26,0,0
2020-10-27,0,0
2020-10-28,0,1
2020-10-29,0,0
2020-10-30,0,0
2020-10-31,0,0
2020-11-01,0,2
2020-11-02,0,1
2020-11-03,0,0
2020-11-04,0,2
2020-11-05,0,1
2020-11-06,0,1
2020-11-07,0,1
2020-11-08,0,1
2020-11-09,0,1
2020-11-10,0,1
2020-11-11,0,0
2020-11-12,0,2
2020-11-13,0,0
2020-11-14,0,0
2020-11-15,0,1
2020-11-16,0,0
2020-11-17,0,0
2020-11-18,0,0
2020-11-19,0,0
2020-11-20,0,0
2020-11-21,0,1
2020-11-22,0,1
2020-11-23,0,1
2020-11-24,0,1
2020-11-25,0,1
2020-11-26,0,1
2020-11-27,0,1
2020-11-28,1,0
2020-11-29,0,0
2020-11-30,0,0
2020-12-01,0,0
2020-12-02,0,0
2020-12-03,0,1
2020-12-04,0,0
2020-12-05,0,0
2020-12-06,0,0
2020-12-07,1,0
2020-12-08,0,1
2020-12-09,0,0
2020-12-10,0,0
2020-12-11,0,1
2020-12-12,0,1
2020-12-13,0,0
2020-12-14,0,0
2020-12-15,0,0
2020-12-16,0,0
2020-12-17,0,1
2020-12-18,0,0
2020-12-19,0,0
2020-12-20,1,0
2020-12-21,0,0
2020-12-22,0,0
2020-12-23,0,0
2020-12-24,0,0
2020-12-25,0,0
2020-12-26,0,1
2020-12-27,0,0
2020-12-28,0,1
2020-12-29,0,1
2020-12-30,0,0
2020-12-31,0,1
2021-01-01,0,0
2021-01-02,0,0
2021-01-03,0,0
2021-01-04,0,0
2021-01-05,0,1
2021-01-06,0,0
2021-01-07,0,0
2021-01-08,0,1
2021-01-09,0,1
2021-01-10,0,0
2021-01-11,0,1
2021-01-12,0,0
2021-01-13,0,0
2021-01-14,0,1
2021-01-15,1,0
2021-01-16,0,1
2021-01-17,0,0
2021-01-18,0,1
2021-01-19,0,0
2021-01-20,1,0
2021-01-21,0,0
2021-01-22,0,0
2021-01-23,0,0
2021-01-24,0,0
2021-01-25,1,0
2021-01-26,0,1
2021-01-27,1,1
2021-01-28,0,1
2021-01-29,0,0
2021-01-30,0,0
2021-01-31,0,0
2021-02-01,0,1
2021-02-02,0,0
2021-02-03,0,1
2021-02-04,0,0
2021-02-05,0,2
2021-02-06,0,0
2021-02-07,0,0
2021-02-08,0,0
2021-02-09,0,1
2021-02-10,0,0
2021-02-11,0,1
2021-02-12,0,1
2021-02-13,0,1
2021-02-14,1,0
2021-02-15,1,1
2021-02-16,0,3
2021-02-17,0,1
2021-02-18,0,1
2021-02-19,2,2
2021-02-20,0,1
2021-02-21,0,0
2021-02-22,0,0
2021-02-23,0,3
2021-02-24,0,1
2021-02-25,0,0
2021-02-26,0,4
2021-02-27,0,1
2021-02-28,0,1
2021-03-01,1,2
2021-03-02,0,3
2021-03-03,0,2
2021-03-04,1,3
2021-03-05,0,3
2021-03-06,0,1
2021-03-07,0,2
2021-03-08,0,1
2021-03-09,0,2
2021-03-10,0,2
2021-03-11,0,2
2021-03-12,0,0
2021-03-13,0,2
2021-03-14,0,2
2021-03-15,0,1
2021-03-16,0,2
2021-03-17,0,3
2021-03-18,0,2
2021-03-19,0,1
2021-03-20,0,0
2021-03-21,0,0
2021-03-22,0,1
2021-03-23,0,1
2021-03-24,0,1
2021-03-25,0,2
2021-03-26,0,1
2021-03-27,0,1
2021-03-28,0,0
2021-03-29,0,2
2021-03-30,0,2
2021-03-31,0,2
2021-04-01,0,0
2021-04-02,1,2
2021-04-03,1,0
2021-04-04,0,3
2021-04-05,0,2
2021-04-06,0,1
2021-04-07,0,0
2021-04-08,0,3
2021-04-09,0,3
2021-04-10,0,1
2021-04-11,0,0
2021-04-12,0,2
2021-04-13,0,2
2021-04-14,0,1
2021-04-15,0,1
2021-04-16,0,2
2021-04-17,0,2
2021-04-18,0,4
2021-04-19,0,3
2021-04-20,0,2
2021-04-21,0,3
2021-04-22,0,3
2021-04-23,0,2
2021-04-24,0,2
2021-04-25,0,1
2021-04-26,0,3
2021-04-27,0,1
2021-04-28,0,1
2021-04-29,0,1
2021-04-30,0,4
2021-05-01,0,2
2021-05-02,0,3
2021-05-03,0,2
2021-05-04,0,2
2021-05-05,1,1
2021-05-06,2,2
2021-05-07,0,5
2021-05-08,0,1
2021-05-09,0,2
2021-05-10,0,2
2021-05-11,0,0
2021-05-12,0,2
2021-05-13,0,0
2021-05-14,0,1
2021-05-15,0,2
2021-05-16,0,2
2021-05-17,0,3
2021-05-18,0,2
2021-05-19,0,1
2021-05-20,0,3
2021-05-21,0,2
2021-05-22,0,0
2021-05-23,0,0
2021-05-24,0,2
2021-05-25,0,1
2021-05-26,0,1
2021-05-27,0,1
2021-05-28,0,2
2021-05-29,0,1
2021-05-30,0,2
2021-05-31,0,1
2021-06-01,0,1
2021-06-02,0,2
2021-06-03,0,2
2021-06-04,0,1
2021-06-05,0,2
2021-06-06,1,1
2021-06-07,0,1
2021-06-08,1,1
2021-06-09,1,2
2021-06-10,0,3
2021-06-11,0,1
2021-06-12,1,2
2021-06-13,0,2
2021-06-14,0,1
2021-06-15,0,1
2021-06-16,0,1
2021-06-17,1,2
2021-06-18,0,2
2021-06-19,0,3
2021-06-20,0,3
2021-06-21,0,1
2021-06-22,0,2
2021-06-23,1,3
2021-06-24,0,2
2021-06-25,0,3
2021-06-26,0,2
2021-06-27,0,1
2021-06-28,0,3
2021-06-29,0,1
2021-06-30,0,1
2021-07-01,0,1
2021-07-02,0,2
2021-07-03,0,3
2021-07-04,0,0
2021-07-05,0,0
2021-07-06,1,1
2021-07-07,0,3
2021-07-08,0,2
2021-07-09,0,2
2021-07-10,0,1
2021-07-11,0,1
2021-07-12,0,3
2021-07-13,0,2
2021-07-14,0,2
2021-07-15,0,3
2021-07-16,0,0
2021-07-17,0,2
2021-07-18,0,0
2021-07-19,0,2
2021-07-20,0,1
2021-07-21,0,3
2021-07-22,0,1
2021-07-23,0,3
2021-07-24,0,3
2021-07-25,0,2
2021-07-26,0,3
2021-07-27,0,2
2021-07-28,0,2
2021-07-29,0,2
2021-07-30,0,3
2021-07-31,0,2
2021-08-01,0,1
2021-08-02,0,3
2021-08-03,0,1
2021-08-04,0,3
2021-08-05,0,1
2021-08-06,0,3
2021-08-07,0,2
2021-08-08,0,2
2021-08-09,0,2
2021-08-10,0,3
2021-08-11,0,1
2021-08-12,0,1
2021-08-13,0,3
2021-08-14,0,3
2021-08-15,1,1
2021-08-16,0,1
2021-08-17,0,0
2021-08-18,0,1
2021-08-19,0,1
2021-08-20,0,1
2021-08-21,0,1
2021-08-22,0,2
2021-08-23,0,1
2021-08-24,0,2
2021-08-25,0,2
2021-08-26,0,2
2021-08-27,0,1
2021-08-28,0,3
2021-08-29,0,1
2021-08-30,0,3
2021-08-31,0,1
2021-09-01,0,2
2021-09-02,0,3
2021-09-03,0,1
2021-09-04,0,1
2021-09-05,1,3
2021-09-06,0,1
2021-09-07,0,3
2021-09-08,0,1
2021-09-09,0,0
2021-09-10,0,2
2021-09-11,0,2
2021-09-12,1,3
2021-09-13,0,3
2021-09-14,0,1
2021-09-15,0,3
2021-09-16,0,2
2021-09-17,0,1
2021-09-18,0,1
2021-09-19,0,0
2021-09-20,0,2
2021-09-21,0,2
2021-09-22,0,1
2021-09-23,0,2
2021-09-24,0,1
2021-09-25,0,1
2021-09-26,0,3
2021-09-27,0,2
2021-09-28,0,2
2021-09-29,0,4
2021-09-30,0,1
2021-10-01,0,2
2021-10-02,1,3
2021-10-03,0,1
2021-10-04,0,4
2021-10-05,0,3
2021-10-06,0,3
2021-10-07,1,2
2021-10-08,0,2
2021-10-09,0,1
2021-10-10,0,2
2021-10-11,0,1
2021-10-12,0,2
2021-10-13,0,1
2021-10-14,0,2
2021-10-15,0,1
2021-10-16,0,1
2021-10-17,0,1
2021-10-18,0,1
2021-10-19,1,2
2021-10-20,0,2
2021-10-21,0,1
2021-10-22,0,2
2021-10-23,0,2
2021-10-24,0,1
2021-10-25,0,2
2021-10-26,0,1
2021-10-27,0,2
2021-10-28,0,2
2021-10-29,0,1
2021-10-30,0,2
2021-10-31,0,1
2021-11-01,0,1
2021-11-02,0,0
2021-11-03,0,2
2021-11-04,0,1
2021-11-05,0,2
2021-11-06,0,1
2021-11-07,0,1
2021-11-08,0,1
2021-11-09,0,3
2021-11-10,0,1
2021-11-11,0,2
2021-11-12,0,3
2021-11-13,0,2
2021-11-14,0,1
2021-11-15,0,1
2021-11-16,0,2
2021-11-17,0,0
2021-11-18,0,1
2021-11-19,0,2
2021-11-20,0,1
2021-11-21,0,1
2021-11-22,0,1
2021-11-23,0,2
2021-11-24,0,1
2021-11-25,0,0
2021-11-26,0,2
2021-11-27,0,1
2021-11-28,0,1
2021-11-29,0,1
2021-11-30,0,0
2021-12-01,0,1
2021-12-02,0,1
2021-12-03,0,1
2021-12-04,0,0
2021-12-05,0,1
2021-12-06,0,1
2021-12-07,0,1
2021-12-08,1,2
2021-12-09,0,2
2021-12-10,0,2
2021-12-11,0,1
2021-12-12,2,1
2021-12-13,0,2
2021-12-14,0,1
2021-12-15,0,2
2021-12-16,0,1
2021-12-17,0,3
2021-12-18,0,2
2021-12-19,0,2
2021-12-20,0,2
2021-12-21,1,2
2021-12-22,1,1
2021-12-23,0,1
2021-12-24,0,3
2021-12-25,0,0
2021-12-26,0,2
2021-12-27,0,2
2021-12-28,0,1
2021-12-29,0,2
2021-12-30,0,2
2021-12-31,0,1
2022-01-01,0,1
2022-01-02,0,1
2022-01-03,0,1
2022-01-04,0,2
2022-01-05,0,1
2022-01-06,0,1
2022-01-07,0,2
2022-01-08,0,2
2022-01-09,0,0
2022-01-10,0,0
2022-01-11,0,2
2022-01-12,0,4
2022-01-13,0,1
2022-01-14,0,1
2022-01-15,0,2
2022-01-16,0,1
2022-01-17,0,2
2022-01-18,2,2
2022-01-19,0,2
2022-01-20,0,3
2022-01-21,0,1
2022-01-22,0,1
2022-01-23,0,2
2022-01-24,0,0